Regional Weather Roundup
Issued by NWS

Home | Current Version | Previous Version | Graphics & Text | Print | Product List | Glossary On
Versions: 1 2 3 4 5 6 7 8 9 10 11 12 13 14 15 16 17 18 19 20 21 22 23 24 25 26 27 28 29 30 31 32 33 34 35 36 37 38 39 40 41 42 43 44 45 46 47 48 49 50
000
ASUS43 KIND 010309
RWRIN

WEATHER ROUNDUP FOR INDIANA
NATIONAL WEATHER SERVICE INDIANAPOLIS IN
1100 PM EDT SAT APR 30 2016

NOTE: "FAIR" INDICATES FEW OR NO CLOUDS BELOW 12,000 FEET WITH NO
SIGNIFICANT WEATHER AND/OR OBSTRUCTIONS TO VISIBILITY.

* - STATION DOES NOT REPORT WEATHER SUCH AS PRECIPITATION OR FOG.

+ - STATION NOT QUALITY CONTROLLED BY THE NATIONAL WEATHER SERVICE.
    USE DATA WITH CAUTION...ESPECIALLY DEWPOINT AND RELATIVE
    HUMIDITY OBSERVATIONS.

INZ001>003-010>013-019-020-010400-
NORTHWEST INDIANA

CITY           SKY/WX    TMP DP  RH WIND       PRES   REMARKS
GARY /AIRPORT/ DRIZZLE   48  48 100 NE12      29.92R
KNOX *+        CLOUDY    46  45  93 E7        29.89R
LA PORTE +     DRIZZLE  N/A N/A N/A NE10      29.91R
MICHIGAN CITY+ DRIZZLE   46  46 100 NE6       29.91S
MONTICELLO +   LGT RAIN  52  49  88 E5        29.85R
RENSSELAER +   CLOUDY    50  50 100 NE8       29.87R
VALPARAISO     CLOUDY    48  46  93 NE13      29.90R FOG

$$

LMZ046-743>745-010400-
SOUTHERN LAKE MICHIGAN

STATION/POSITION TIME  TEMP    WIND        PRES    WAVE
                       AIR SEA DIR/SP/G            HT
                 (UTC) (F)     (DEG/KT/KT) (MB)    (FT)
BURNS HARBOR     0209   48      50/ 14/ 17 1013.2R
MICHIGAN CITY    0200   48      30/ 12/ 13   N/A

$$

INZ004-005-014>016-021>024-010400-
NORTH CENTRAL INDIANA

CITY           SKY/WX    TMP DP  RH WIND       PRES   REMARKS
GOSHEN         LGT RAIN  48  45  89 E10       29.91S
LOGANSPORT +   HVY RAIN  52  52 100 NE3       29.86S
PERU/GRISSOM   DRIZZLE   54  54 100 E5        29.84S FOG
ROCHESTER +    DRIZZLE   52  52 100 E8        29.88S
SOUTH BEND     LGT RAIN  48  46  93 E10       29.92R
WARSAW +       RAIN      46  46 100 E8        29.89S

$$

INZ006>009-017-018-025>027-010400-
NORTHEAST INDIANA

CITY           SKY/WX    TMP DP  RH WIND       PRES   REMARKS
ANGOLA *+      CLOUDY    46  36  66 NE7       29.92S
AUBURN +       HVY RAIN  46  45  93 E7        29.91S
FORT WAYNE     LGT RAIN  50  49  96 E8        29.89S FOG
HUNTINGTON +   RAIN     N/A N/A N/A E3        29.87S

$$

INZ028-029-035-036-043>045-051>053-010400-
WEST CENTRAL INDIANA

CITY           SKY/WX    TMP DP  RH WIND       PRES   REMARKS
CRAWFORDSVL +  CLOUDY    59  59 100 S5        29.86R
GREENCASTLE +  CLOUDY    61  61 100 CALM      29.87R
LAFAYETTE      CLOUDY    56  55  97 CALM      29.84R FOG
TERRE HAUTE    CLOUDY    64  61  90 S5        29.86R

$$

INZ030>032-037>040-046>048-054>057-064-065-010400-
CENTRAL INDIANA

CITY           SKY/WX    TMP DP  RH WIND       PRES   REMARKS
CP ATTERBURY + CLOUDY    61  59  94 S7        29.88S
FISHERS *+     CLOUDY    59  59 100 S7        29.85F
FRANKFORT +      N/A     59  59 100 CALM      29.86S FOG
GREENWOOD *+   CLOUDY    61  61 100 S8        29.88
INDIANAPOLIS   CLOUDY    61  59  93 S9        29.85S
-EAGLE CREEK   CLOUDY    62  60  93 S6        29.85R
KOKOMO *+      CLOUDY    55  52  88 SE6       29.85S
MARION +       CLOUDY    55  55 100 SE5       29.86S FOG
SHELBYVILLE    CLOUDY    63  59  87 S8        29.87R
ZIONSVILLE +   CLOUDY    60  59  96 S7        29.86S

$$

INZ033-034-041-042-049-050-058-059-010400-
EAST CENTRAL INDIANA

CITY           SKY/WX    TMP DP  RH WIND       PRES   REMARKS
MUNCIE         CLOUDY    61  57  87 S8        29.87R

$$

INZ060-061-067>069-081>083-085>088-010400-
SOUTHWEST INDIANA

CITY           SKY/WX    TMP DP  RH WIND       PRES   REMARKS
EVANSVILLE     CLOUDY    66  64  93 S6        29.86S
HUNTINGBURG *+ CLOUDY    64  61  88 S5        29.88R
WASHINGTON +   CLOUDY    64  64 100 S9        29.85S

$$

INZ062-063-066-070>080-084-089>092-010400-
SOUTH CENTRAL AND SOUTHEAST INDIANA

CITY           SKY/WX    TMP DP  RH WIND       PRES   REMARKS
BEDFORD +      CLOUDY    63  63 100 S5        29.88R
BLOOMINGTON    LGT RAIN  63  61  93 S7        29.86S
MADISON *+     CLOUDY    63  61  94 SE6       29.92R
NORTH VERNON + LGT RAIN N/A N/A N/A CALM      29.89R
SEYMOUR +      CLOUDY    64  63  94 CALM      29.89R

$$




USA.gov is the U.S. government's official web portal to all federal, state and local government web resources and services.